Вернуться в каталог

CZ-6A DEB

АктивенPO
NORAD 54307·DEBRIS·🇨🇳 China

Запущен Nov 11, 2022 с Taiyuan Satellite Launch Center

Loading…

Ближайшие Пролёты (ближайшие 24 часа)

TLE

СвежийSource: Space-Track

Эпоха: Sep 14, 2026, 10:57 UTC

1 54307U 22151BA  26257.45671897  .00056069  00000-0  28733-2 0  9990
2 54307  98.5525 338.1593 0028017 294.2799  65.5505 15.16019831133050

Отслеживайте CZ-6A DEB в реальном времени с AllMySat

Download on the App Store